owner,sensor,date,latitude,longitude,vertical_datum,direction_of_sea_water_velocity,sea_water_speed,upward_sea_water_velocity,qcFlag 
TABS,ioos:station:wmo:42050:1,1999-12-01T00:00:00Z,28.8425,-94.2433,2.0,223.6054948,26.44655176,-99999.0,'11111222,11111222,99999999' 
TABS,ioos:station:wmo:42050:1,1999-12-01T08:00:00Z,28.8425,-94.2433,2.0,224.3987031,20.22436649,-99999.0,'11111222,11111222,99999999' 
TABS,ioos:station:wmo:42050:1,1999-12-01T08:30:00Z,28.8425,-94.2433,2.0,235.47916,19.71056823,-99999.0,'11111222,11111222,99999999' 
TABS,ioos:station:wmo:42050:1,1999-12-01T09:00:00Z,28.8425,-94.2433,2.0,232.9567707,20.5340936,-99999.0,'11111222,11111222,99999999' 
TABS,ioos:station:wmo:42050:1,1999-12-01T09:30:00Z,28.8425,-94.2433,2.0,234.0011919,17.49002287,-99999.0,'11111222,11111222,99999999' 
TABS,ioos:station:wmo:42050:1,1999-12-01T10:00:00Z,28.8425,-94.2433,2.0,238.2989356,20.13388437,-99999.0,'11111222,11111222,99999999' 
TABS,ioos:station:wmo:42050:1,1999-12-01T10:30:00Z,28.8425,-94.2433,2.0,237.1986277,21.45006527,-99999.0,'11111222,11111222,99999999' 
TABS,ioos:station:wmo:42050:1,1999-12-01T11:00:00Z,28.8425,-94.2433,2.0,233.2103684,19.90401969,-99999.0,'11111222,11111222,99999999' 
TABS,ioos:station:wmo:42050:1,1999-12-01T11:30:00Z,28.8425,-94.2433,2.0,243.6589844,17.12841207,-99999.0,'11111222,11111222,99999999' 
TABS,ioos:station:wmo:42050:1,1999-12-01T12:00:00Z,28.8425,-94.2433,2.0,248.7779303,18.53705748,-99999.0,'11111222,11111222,99999999' 
TABS,ioos:station:wmo:42050:1,1999-12-01T12:30:00Z,28.8425,-94.2433,2.0,254.3933525,17.17311853,-99999.0,'11111222,11111222,99999999' 
TABS,ioos:station:wmo:42050:1,1999-12-01T13:00:00Z,28.8425,-94.2433,2.0,257.2119644,16.80685872,-99999.0,'11111222,11111222,99999999' 
TABS,ioos:station:wmo:42050:1,1999-12-01T13:30:00Z,28.8425,-94.2433,2.0,251.5530208,15.54891958,-99999.0,'11111222,11111222,99999999' 
TABS,ioos:station:wmo:42050:1,1999-12-01T14:00:00Z,28.8425,-94.2433,2.0,252.0574809,16.91248651,-99999.0,'11111222,11111222,99999999' 
TABS,ioos:station:wmo:42050:1,1999-12-01T14:30:00Z,28.8425,-94.2433,2.0,257.9914586,14.32342487,-99999.0,'11111222,11111222,99999999' 
TABS,ioos:station:wmo:42050:1,1999-12-01T15:00:00Z,28.8425,-94.2433,2.0,263.9012237,15.43736053,-99999.0,'11111222,11111222,99999999' 
TABS,ioos:station:wmo:42050:1,1999-12-01T15:30:00Z,28.8425,-94.2433,2.0,244.4690988,18.32980087,-99999.0,'11111222,11111222,99999999' 
TABS,ioos:station:wmo:42050:1,1999-12-01T16:00:00Z,28.8425,-94.2433,2.0,258.6685463,10.63733989,-99999.0,'11111222,11111222,99999999' 
TABS,ioos:station:wmo:42050:1,1999-12-01T16:30:00Z,28.8425,-94.2433,2.0,281.5406839,14.14597116,-99999.0,'11111222,11111222,99999999' 
TABS,ioos:station:wmo:42050:1,1999-12-01T17:00:00Z,28.8425,-94.2433,2.0,269.4109459,14.60077053,-99999.0,'11111222,11111222,99999999' 
TABS,ioos:station:wmo:42050:1,1999-12-01T17:30:00Z,28.8425,-94.2433,2.0,267.0980362,14.6187414,-99999.0,'11111222,11111222,99999999' 
TABS,ioos:station:wmo:42050:1,1999-12-01T18:00:00Z,28.8425,-94.2433,2.0,264.2985176,11.9792529,-99999.0,'11111222,11111222,99999999' 
TABS,ioos:station:wmo:42050:1,1999-12-01T18:30:00Z,28.8425,-94.2433,2.0,265.6093643,15.54561353,-99999.0,'11111222,11111222,99999999' 
TABS,ioos:station:wmo:42050:1,1999-12-01T19:00:00Z,28.8425,-94.2433,2.0,255.1755641,13.40621125,-99999.0,'11111222,11111222,99999999' 
TABS,ioos:station:wmo:42050:1,1999-12-01T19:30:00Z,28.8425,-94.2433,2.0,252.426941,12.81816289,-99999.0,'11111222,11111222,99999999' 
TABS,ioos:station:wmo:42050:1,1999-12-01T20:00:00Z,28.8425,-94.2433,2.0,261.2874487,12.80777889,-99999.0,'11111222,11111222,99999999' 
TABS,ioos:station:wmo:42050:1,1999-12-01T20:30:00Z,28.8425,-94.2433,2.0,268.8344046,14.75305053,-99999.0,'11111222,11111222,99999999' 
TABS,ioos:station:wmo:42050:1,1999-12-01T21:00:00Z,28.8425,-94.2433,2.0,267.9407061,16.70078142,-99999.0,'11111222,11111222,99999999' 
TABS,ioos:station:wmo:42050:1,1999-12-01T21:30:00Z,28.8425,-94.2433,2.0,268.9604733,16.54272045,-99999.0,'11111222,11111222,99999999' 
TABS,ioos:station:wmo:42050:1,1999-12-01T22:00:00Z,28.8425,-94.2433,2.0,268.9213693,15.94282284,-99999.0,'11111222,11111222,99999999' 
TABS,ioos:station:wmo:42050:1,1999-12-01T22:30:00Z,28.8425,-94.2433,2.0,266.8627462,16.26436903,-99999.0,'11111222,11111222,99999999' 
TABS,ioos:station:wmo:42050:1,1999-12-01T23:00:00Z,28.8425,-94.2433,2.0,265.5230641,15.24651108,-99999.0,'11111222,11111222,99999999' 
TABS,ioos:station:wmo:42050:1,1999-12-01T23:30:00Z,28.8425,-94.2433,2.0,267.7611494,15.36172191,-99999.0,'11111222,11111222,99999999' 
TABS,ioos:station:wmo:42050:1,1999-12-02T00:00:00Z,28.8425,-94.2433,2.0,262.1358124,13.08303099,-99999.0,'11111222,11111222,99999999' 
TABS,ioos:station:wmo:42050:1,1999-12-02T00:30:00Z,28.8425,-94.2433,2.0,266.7537753,10.59699958,-99999.0,'11111222,11111222,99999999' 
TABS,ioos:station:wmo:42050:1,1999-12-02T01:00:00Z,28.8425,-94.2433,2.0,254.5017857,12.83673635,-99999.0,'11111222,11111222,99999999' 
TABS,ioos:station:wmo:42050:1,1999-12-02T01:30:00Z,28.8425,-94.2433,2.0,270.0004209,10.88,-99999.0,'11111222,11111222,99999999' 
TABS,ioos:station:wmo:42050:1,1999-12-02T02:00:00Z,28.8425,-94.2433,2.0,264.2291114,13.32753541,-99999.0,'11111222,11111222,99999999' 
TABS,ioos:station:wmo:42050:1,1999-12-02T02:30:00Z,28.8425,-94.2433,2.0,261.9661622,11.73516084,-99999.0,'11111222,11111222,99999999' 
TABS,ioos:station:wmo:42050:1,1999-12-02T03:00:00Z,28.8425,-94.2433,2.0,271.5185014,11.32397457,-99999.0,'11111222,11111222,99999999' 
TABS,ioos:station:wmo:42050:1,1999-12-02T03:30:00Z,28.8425,-94.2433,2.0,270.0004209,10.43,-99999.0,'11111222,11111222,99999999' 
TABS,ioos:station:wmo:42050:1,1999-12-02T04:00:00Z,28.8425,-94.2433,2.0,279.7850257,8.767536712,-99999.0,'11133222,11111222,99999999' 
TABS,ioos:station:wmo:42050:1,1999-12-02T04:30:00Z,28.8425,-94.2433,2.0,267.3379581,9.690454066,-99999.0,'11133222,11111222,99999999' 
TABS,ioos:station:wmo:42050:1,1999-12-02T05:00:00Z,28.8425,-94.2433,2.0,249.0291957,11.65175094,-99999.0,'11111222,11111222,99999999' 
TABS,ioos:station:wmo:42050:1,1999-12-02T05:30:00Z,28.8425,-94.2433,2.0,248.0006902,9.156691542,-99999.0,'11133222,11111222,99999999' 
TABS,ioos:station:wmo:42050:1,1999-12-02T06:00:00Z,28.8425,-94.2433,2.0,243.8947861,7.795184411,-99999.0,'11133222,11111222,99999999' 
TABS,ioos:station:wmo:42050:1,1999-12-02T06:30:00Z,28.8425,-94.2433,2.0,231.4837234,9.329849945,-99999.0,'11133222,11111222,99999999' 
TABS,ioos:station:wmo:42050:1,1999-12-02T07:00:00Z,28.8425,-94.2433,2.0,233.2512669,13.20402969,-99999.0,'11111222,11111222,99999999' 
TABS,ioos:station:wmo:42050:1,1999-12-02T07:30:00Z,28.8425,-94.2433,2.0,228.3595091,14.35773311,-99999.0,'11111222,11111222,99999999' 
TABS,ioos:station:wmo:42050:1,1999-12-02T08:00:00Z,28.8425,-94.2433,2.0,224.9996843,16.00889753,-99999.0,'11111222,11111222,99999999' 
TABS,ioos:station:wmo:42050:1,1999-12-02T08:30:00Z,28.8425,-94.2433,2.0,222.0314572,16.24990154,-99999.0,'11111222,11111222,99999999' 
TABS,ioos:station:wmo:42050:1,1999-12-02T09:00:00Z,28.8425,-94.2433,2.0,225.3491857,17.38807925,-99999.0,'11111222,11111222,99999999' 
TABS,ioos:station:wmo:42050:1,1999-12-02T09:30:00Z,28.8425,-94.2433,2.0,227.6818437,15.71498648,-99999.0,'11111222,11111222,99999999' 
TABS,ioos:station:wmo:42050:1,1999-12-02T10:00:00Z,28.8425,-94.2433,2.0,232.1671777,17.73850332,-99999.0,'11111222,11111222,99999999' 
TABS,ioos:station:wmo:42050:1,1999-12-02T10:30:00Z,28.8425,-94.2433,2.0,235.5682284,16.07655747,-99999.0,'11111222,11111222,99999999' 
TABS,ioos:station:wmo:42050:1,1999-12-02T11:00:00Z,28.8425,-94.2433,2.0,238.0349694,14.92265392,-99999.0,'11111222,11111222,99999999' 
TABS,ioos:station:wmo:42050:1,1999-12-02T11:30:00Z,28.8425,-94.2433,2.0,240.4576319,15.41389308,-99999.0,'11111222,11111222,99999999' 
TABS,ioos:station:wmo:42050:1,1999-12-02T12:00:00Z,28.8425,-94.2433,2.0,240.4228714,12.6826062,-99999.0,'11111222,11111222,99999999' 
TABS,ioos:station:wmo:42050:1,1999-12-02T12:30:00Z,28.8425,-94.2433,2.0,257.3218025,10.84439025,-99999.0,'11111222,11111222,99999999' 
TABS,ioos:station:wmo:42050:1,1999-12-02T13:00:00Z,28.8425,-94.2433,2.0,261.1836861,8.743294574,-99999.0,'11133222,11111222,99999999' 
TABS,ioos:station:wmo:42050:1,1999-12-02T13:30:00Z,28.8425,-94.2433,2.0,265.5626869,11.50447739,-99999.0,'11111222,11111222,99999999' 
TABS,ioos:station:wmo:42050:1,1999-12-02T14:00:00Z,28.8425,-94.2433,2.0,270.0004209,11.92,-99999.0,'11111222,11111222,99999999' 
TABS,ioos:station:wmo:42050:1,1999-12-02T14:30:00Z,28.8425,-94.2433,2.0,268.4611223,11.17402792,-99999.0,'11111222,11111222,99999999' 
TABS,ioos:station:wmo:42050:1,1999-12-02T15:00:00Z,28.8425,-94.2433,2.0,281.6579641,10.34335536,-99999.0,'11111222,11111222,99999999' 
TABS,ioos:station:wmo:42050:1,1999-12-02T15:30:00Z,28.8425,-94.2433,2.0,296.56541,9.324403466,-99999.0,'11133222,11111222,99999999' 
TABS,ioos:station:wmo:42050:1,1999-12-02T16:00:00Z,28.8425,-94.2433,2.0,285.3132035,9.580109603,-99999.0,'11133222,11111222,99999999' 
TABS,ioos:station:wmo:42050:1,1999-12-02T16:30:00Z,28.8425,-94.2433,2.0,294.2121186,9.802244641,-99999.0,'11133222,11111222,99999999' 
TABS,ioos:station:wmo:42050:1,1999-12-02T17:00:00Z,28.8425,-94.2433,2.0,294.4311562,7.205137056,-99999.0,'11133222,11111222,99999999' 
TABS,ioos:station:wmo:42050:1,1999-12-02T17:30:00Z,28.8425,-94.2433,2.0,287.3325072,12.48698522,-99999.0,'11111222,11111222,99999999' 
TABS,ioos:station:wmo:42050:1,1999-12-02T18:00:00Z,28.8425,-94.2433,2.0,295.2154551,8.732032982,-99999.0,'11133222,11111222,99999999' 
TABS,ioos:station:wmo:42050:1,1999-12-02T18:30:00Z,28.8425,-94.2433,2.0,287.7582079,8.295233571,-99999.0,'11133222,11111222,99999999' 
TABS,ioos:station:wmo:42050:1,1999-12-02T19:00:00Z,28.8425,-94.2433,2.0,258.8594734,9.264566908,-99999.0,'11133222,11111222,99999999' 
TABS,ioos:station:wmo:42050:1,1999-12-02T19:30:00Z,28.8425,-94.2433,2.0,245.7878814,6.534829761,-99999.0,'11133222,11111222,99999999' 
TABS,ioos:station:wmo:42050:1,1999-12-02T20:00:00Z,28.8425,-94.2433,2.0,250.1674956,13.61765398,-99999.0,'11111222,11111222,99999999' 
TABS,ioos:station:wmo:42050:1,1999-12-02T20:30:00Z,28.8425,-94.2433,2.0,248.6340077,13.91641118,-99999.0,'11111222,11111222,99999999' 
TABS,ioos:station:wmo:42050:1,1999-12-02T21:00:00Z,28.8425,-94.2433,2.0,245.462762,13.26819505,-99999.0,'11111222,11111222,99999999' 
TABS,ioos:station:wmo:42050:1,1999-12-02T21:30:00Z,28.8425,-94.2433,2.0,240.6059109,12.14322857,-99999.0,'11111222,11111222,99999999' 
TABS,ioos:station:wmo:42050:1,1999-12-02T22:00:00Z,28.8425,-94.2433,2.0,245.5707375,12.59781727,-99999.0,'11111222,11111222,99999999' 
TABS,ioos:station:wmo:42050:1,1999-12-02T22:30:00Z,28.8425,-94.2433,2.0,247.0334577,14.89027199,-99999.0,'11111222,11111222,99999999' 
TABS,ioos:station:wmo:42050:1,1999-12-02T23:00:00Z,28.8425,-94.2433,2.0,247.3740773,15.49230777,-99999.0,'11111222,11111222,99999999' 
TABS,ioos:station:wmo:42050:1,1999-12-02T23:30:00Z,28.8425,-94.2433,2.0,261.3470575,15.82005057,-99999.0,'11111222,11111222,99999999' 
TABS,ioos:station:wmo:42050:1,1999-12-03T00:00:00Z,28.8425,-94.2433,2.0,267.837599,11.9284911,-99999.0,'11111222,11111222,99999999' 
TABS,ioos:station:wmo:42050:1,1999-12-03T00:30:00Z,28.8425,-94.2433,2.0,253.5540331,12.11566342,-99999.0,'11111222,11111222,99999999' 
TABS,ioos:station:wmo:42050:1,1999-12-03T01:00:00Z,28.8425,-94.2433,2.0,267.2558805,12.53436875,-99999.0,'11111222,11111222,99999999' 
TABS,ioos:station:wmo:42050:1,1999-12-03T01:30:00Z,28.8425,-94.2433,2.0,271.6719984,10.2843765,-99999.0,'11111222,11111222,99999999' 
TABS,ioos:station:wmo:42050:1,1999-12-03T02:00:00Z,28.8425,-94.2433,2.0,279.6162254,9.817942758,-99999.0,'11133222,11111222,99999999' 
TABS,ioos:station:wmo:42050:1,1999-12-03T02:30:00Z,28.8425,-94.2433,2.0,280.219624,12.56939935,-99999.0,'11111222,11111222,99999999' 
TABS,ioos:station:wmo:42050:1,1999-12-03T03:00:00Z,28.8425,-94.2433,2.0,278.4144644,16.26506994,-99999.0,'11111222,11111222,99999999' 
TABS,ioos:station:wmo:42050:1,1999-12-03T03:30:00Z,28.8425,-94.2433,2.0,296.5824978,14.99507252,-99999.0,'11111222,11111222,99999999' 
TABS,ioos:station:wmo:42050:1,1999-12-03T04:00:00Z,28.8425,-94.2433,2.0,288.4139716,8.484391552,-99999.0,'11133222,11111222,99999999' 
TABS,ioos:station:wmo:42050:1,1999-12-03T04:30:00Z,28.8425,-94.2433,2.0,282.7456806,9.473420713,-99999.0,'11133222,11111222,99999999' 
TABS,ioos:station:wmo:42050:1,1999-12-03T05:00:00Z,28.8425,-94.2433,2.0,274.2704446,11.95317949,-99999.0,'11111222,11111222,99999999' 
TABS,ioos:station:wmo:42050:1,1999-12-03T05:30:00Z,28.8425,-94.2433,2.0,271.3264722,12.96347176,-99999.0,'11111222,11111222,99999999' 
TABS,ioos:station:wmo:42050:1,1999-12-03T06:00:00Z,28.8425,-94.2433,2.0,255.0921332,9.251378276,-99999.0,'11133222,11111222,99999999' 
TABS,ioos:station:wmo:42050:1,1999-12-03T06:30:00Z,28.8425,-94.2433,2.0,254.1581737,13.62756398,-99999.0,'11111222,11111222,99999999' 
TABS,ioos:station:wmo:42050:1,1999-12-03T07:00:00Z,28.8425,-94.2433,2.0,237.2713743,9.913889247,-99999.0,'11133222,11111222,99999999' 
TABS,ioos:station:wmo:42050:1,1999-12-03T07:30:00Z,28.8425,-94.2433,2.0,224.0844963,13.28115959,-99999.0,'11111222,11111222,99999999' 
TABS,ioos:station:wmo:42050:1,1999-12-03T08:00:00Z,28.8425,-94.2433,2.0,239.3195671,14.89483468,-99999.0,'11111222,11111222,99999999' 
TABS,ioos:station:wmo:42050:1,1999-12-03T08:30:00Z,28.8425,-94.2433,2.0,218.7669606,11.65839183,-99999.0,'11111222,11111222,99999999' 
TABS,ioos:station:wmo:42050:1,1999-12-03T09:00:00Z,28.8425,-94.2433,2.0,230.9202912,15.35541598,-99999.0,'11111222,11111222,99999999' 
TABS,ioos:station:wmo:42050:1,1999-12-03T09:30:00Z,28.8425,-94.2433,2.0,235.7685266,13.51032568,-99999.0,'11111222,11111222,99999999' 
TABS,ioos:station:wmo:42050:1,1999-12-03T10:00:00Z,28.8425,-94.2433,2.0,232.2536957,17.52804895,-99999.0,'11111222,11111222,99999999' 
TABS,ioos:station:wmo:42050:1,1999-12-03T10:30:00Z,28.8425,-94.2433,2.0,232.4428178,17.8492829,-99999.0,'11111222,11111222,99999999' 
TABS,ioos:station:wmo:42050:1,1999-12-03T11:00:00Z,28.8425,-94.2433,2.0,242.4892031,20.32862514,-99999.0,'11111222,11111222,99999999' 
TABS,ioos:station:wmo:42050:1,1999-12-03T11:30:00Z,28.8425,-94.2433,2.0,246.3781377,20.81394965,-99999.0,'11111222,11111222,99999999' 
TABS,ioos:station:wmo:42050:1,1999-12-03T12:00:00Z,28.8425,-94.2433,2.0,271.9719538,17.44032396,-99999.0,'11111222,11111222,99999999' 
TABS,ioos:station:wmo:42050:1,1999-12-03T12:30:00Z,28.8425,-94.2433,2.0,287.4899397,14.37450869,-99999.0,'11111222,11111222,99999999' 
TABS,ioos:station:wmo:42050:1,1999-12-03T13:00:00Z,28.8425,-94.2433,2.0,296.102113,16.59216683,-99999.0,'11111222,11111222,99999999' 
TABS,ioos:station:wmo:42050:1,1999-12-03T13:30:00Z,28.8425,-94.2433,2.0,307.219119,14.78027402,-99999.0,'11111222,11111222,99999999' 
TABS,ioos:station:wmo:42050:1,1999-12-03T14:00:00Z,28.8425,-94.2433,2.0,304.3124878,15.32726982,-99999.0,'11111222,11111222,99999999' 
TABS,ioos:station:wmo:42050:1,1999-12-03T14:30:00Z,28.8425,-94.2433,2.0,318.3691796,19.7340974,-99999.0,'11111222,11111222,99999999' 
TABS,ioos:station:wmo:42050:1,1999-12-03T15:00:00Z,28.8425,-94.2433,2.0,316.7909677,16.97177952,-99999.0,'11111222,11111222,99999999' 
TABS,ioos:station:wmo:42050:1,1999-12-03T15:30:00Z,28.8425,-94.2433,2.0,318.34063,14.56285686,-99999.0,'11111222,11111222,99999999' 
TABS,ioos:station:wmo:42050:1,1999-12-03T16:00:00Z,28.8425,-94.2433,2.0,313.7905921,15.0718048,-99999.0,'11111222,11111222,99999999' 
TABS,ioos:station:wmo:42050:1,1999-12-03T16:30:00Z,28.8425,-94.2433,2.0,311.711587,18.36552477,-99999.0,'11111222,11111222,99999999' 
TABS,ioos:station:wmo:42050:1,1999-12-03T17:00:00Z,28.8425,-94.2433,2.0,332.8015425,11.72665767,-99999.0,'11111222,11111222,99999999' 
TABS,ioos:station:wmo:42050:1,1999-12-03T17:30:00Z,28.8425,-94.2433,2.0,302.7783777,10.45464968,-99999.0,'11111222,11111222,99999999' 
TABS,ioos:station:wmo:42050:1,1999-12-03T18:00:00Z,28.8425,-94.2433,2.0,309.6282202,12.38634732,-99999.0,'11111222,11111222,99999999' 
TABS,ioos:station:wmo:42050:1,1999-12-03T18:30:00Z,28.8425,-94.2433,2.0,309.9024744,8.355698654,-99999.0,'11133222,11111222,99999999' 
TABS,ioos:station:wmo:42050:1,1999-12-03T19:00:00Z,28.8425,-94.2433,2.0,310.1033128,11.09966666,-99999.0,'11111222,11111222,99999999' 
TABS,ioos:station:wmo:42050:1,1999-12-03T19:30:00Z,28.8425,-94.2433,2.0,292.2221802,7.086324858,-99999.0,'11133222,11111222,99999999' 
TABS,ioos:station:wmo:42050:1,1999-12-03T20:00:00Z,28.8425,-94.2433,2.0,256.5509955,10.8782949,-99999.0,'11111222,11111222,99999999' 
TABS,ioos:station:wmo:42050:1,1999-12-03T20:30:00Z,28.8425,-94.2433,2.0,241.158732,8.333690659,-99999.0,'11133222,11111222,99999999' 
TABS,ioos:station:wmo:42050:1,1999-12-03T21:00:00Z,28.8425,-94.2433,2.0,244.1146947,10.92619787,-99999.0,'11111222,11111222,99999999' 
TABS,ioos:station:wmo:42050:1,1999-12-03T21:30:00Z,28.8425,-94.2433,2.0,250.1583524,9.663669075,-99999.0,'11133222,11111222,99999999' 
TABS,ioos:station:wmo:42050:1,1999-12-03T22:00:00Z,28.8425,-94.2433,2.0,247.6157047,8.219300457,-99999.0,'11133222,11111222,99999999' 
TABS,ioos:station:wmo:42050:1,1999-12-03T22:30:00Z,28.8425,-94.2433,2.0,253.4516381,13.06096474,-99999.0,'11111222,11111222,99999999' 
TABS,ioos:station:wmo:42050:1,1999-12-03T23:00:00Z,28.8425,-94.2433,2.0,259.1581381,10.3140923,-99999.0,'11111222,11111222,99999999' 
TABS,ioos:station:wmo:42050:1,1999-12-03T23:30:00Z,28.8425,-94.2433,2.0,249.4991683,14.47682631,-99999.0,'11111222,11111222,99999999' 
TABS,ioos:station:wmo:42050:1,1999-12-04T00:00:00Z,28.8425,-94.2433,2.0,280.219624,12.56939935,-99999.0,'11111222,11111222,99999999' 
TABS,ioos:station:wmo:42050:1,1999-12-04T00:30:00Z,28.8425,-94.2433,2.0,279.1965304,10.26189554,-99999.0,'11111222,11111222,99999999' 
TABS,ioos:station:wmo:42050:1,1999-12-04T01:00:00Z,28.8425,-94.2433,2.0,296.1729802,9.794207472,-99999.0,'11133222,11111222,99999999' 
TABS,ioos:station:wmo:42050:1,1999-12-04T01:30:00Z,28.8425,-94.2433,2.0,296.5358304,8.662528499,-99999.0,'11133222,11111222,99999999' 
TABS,ioos:station:wmo:42050:1,1999-12-04T02:00:00Z,28.8425,-94.2433,2.0,320.3148489,7.939584372,-99999.0,'11133222,11111222,99999999' 
TABS,ioos:station:wmo:42050:1,1999-12-04T02:30:00Z,28.8425,-94.2433,2.0,310.3871799,7.824736417,-99999.0,'11133222,11111222,99999999' 
TABS,ioos:station:wmo:42050:1,1999-12-04T03:00:00Z,28.8425,-94.2433,2.0,301.6408505,6.824404736,-99999.0,'11133222,11111222,99999999' 
TABS,ioos:station:wmo:42050:1,1999-12-04T03:30:00Z,28.8425,-94.2433,2.0,307.9497811,9.447676963,-99999.0,'11133222,11111222,99999999' 
TABS,ioos:station:wmo:42050:1,1999-12-04T04:00:00Z,28.8425,-94.2433,2.0,312.0444737,8.227526967,-99999.0,'11133222,11111222,99999999' 
TABS,ioos:station:wmo:42050:1,1999-12-04T04:30:00Z,28.8425,-94.2433,2.0,285.1506579,9.106508661,-99999.0,'11133222,11111222,99999999' 
TABS,ioos:station:wmo:42050:1,1999-12-04T05:00:00Z,28.8425,-94.2433,2.0,284.9756123,10.95195416,-99999.0,'11111222,11111222,99999999' 
TABS,ioos:station:wmo:42050:1,1999-12-04T05:30:00Z,28.8425,-94.2433,2.0,266.4008194,4.779424652,-99999.0,'11133222,11111222,99999999' 
TABS,ioos:station:wmo:42050:1,1999-12-04T06:00:00Z,28.8425,-94.2433,2.0,250.2143669,7.917379617,-99999.0,'11133222,11111222,99999999' 
TABS,ioos:station:wmo:42050:1,1999-12-04T06:30:00Z,28.8425,-94.2433,2.0,251.2606053,8.342205943,-99999.0,'11133222,11111222,99999999' 
TABS,ioos:station:wmo:42050:1,1999-12-04T07:00:00Z,28.8425,-94.2433,2.0,227.2193347,5.477116029,-99999.0,'11133222,11111222,99999999' 
TABS,ioos:station:wmo:42050:1,1999-12-04T07:30:00Z,28.8425,-94.2433,2.0,245.294185,10.33607759,-99999.0,'11111222,11111222,99999999' 
TABS,ioos:station:wmo:42050:1,1999-12-04T08:00:00Z,28.8425,-94.2433,2.0,230.9440579,10.17340159,-99999.0,'11111222,11111222,99999999' 
TABS,ioos:station:wmo:42050:1,1999-12-04T08:30:00Z,28.8425,-94.2433,2.0,241.2460126,10.5395683,-99999.0,'11111222,11111222,99999999' 
TABS,ioos:station:wmo:42050:1,1999-12-04T09:00:00Z,28.8425,-94.2433,2.0,232.2806654,9.987096675,-99999.0,'11133222,11111222,99999999' 
TABS,ioos:station:wmo:42050:1,1999-12-04T09:30:00Z,28.8425,-94.2433,2.0,224.3791781,9.794003267,-99999.0,'11133222,11111222,99999999' 
TABS,ioos:station:wmo:42050:1,1999-12-04T10:00:00Z,28.8425,-94.2433,2.0,234.0749419,10.66945172,-99999.0,'11111222,11111222,99999999' 
TABS,ioos:station:wmo:42050:1,1999-12-04T10:30:00Z,28.8425,-94.2433,2.0,222.5774547,12.54821501,-99999.0,'11111222,11111222,99999999' 
TABS,ioos:station:wmo:42050:1,1999-12-04T11:00:00Z,28.8425,-94.2433,2.0,236.0212403,16.53304872,-99999.0,'11111222,11111222,99999999' 
TABS,ioos:station:wmo:42050:1,1999-12-04T11:30:00Z,28.8425,-94.2433,2.0,251.7215859,16.16562402,-99999.0,'11111222,11111222,99999999' 
TABS,ioos:station:wmo:42050:1,1999-12-04T12:00:00Z,28.8425,-94.2433,2.0,253.1901618,14.93828638,-99999.0,'11111222,11111222,99999999' 
TABS,ioos:station:wmo:42050:1,1999-12-04T12:30:00Z,28.8425,-94.2433,2.0,259.3152659,18.50073782,-99999.0,'11111222,11111222,99999999' 
TABS,ioos:station:wmo:42050:1,1999-12-04T13:00:00Z,28.8425,-94.2433,2.0,268.5932582,18.3355229,-99999.0,'11111222,11111222,99999999' 
TABS,ioos:station:wmo:42050:1,1999-12-04T13:30:00Z,28.8425,-94.2433,2.0,270.0004209,15.64,-99999.0,'11111222,11111222,99999999' 
TABS,ioos:station:wmo:42050:1,1999-12-04T14:00:00Z,28.8425,-94.2433,2.0,270.0004209,17.88,-99999.0,'11111222,11111222,99999999' 
TABS,ioos:station:wmo:42050:1,1999-12-04T14:30:00Z,28.8425,-94.2433,2.0,270.9697979,17.73253789,-99999.0,'11111222,11111222,99999999' 
TABS,ioos:station:wmo:42050:1,1999-12-04T15:00:00Z,28.8425,-94.2433,2.0,274.4732834,17.18233104,-99999.0,'11111222,11111222,99999999' 
TABS,ioos:station:wmo:42050:1,1999-12-04T15:30:00Z,28.8425,-94.2433,2.0,280.1188782,19.52366001,-99999.0,'11111222,11111222,99999999' 
TABS,ioos:station:wmo:42050:1,1999-12-04T16:00:00Z,28.8425,-94.2433,2.0,287.9363273,15.97643264,-99999.0,'11111222,11111222,99999999' 
TABS,ioos:station:wmo:42050:1,1999-12-04T16:30:00Z,28.8425,-94.2433,2.0,290.6182548,17.35136018,-99999.0,'11111222,11111222,99999999' 
TABS,ioos:station:wmo:42050:1,1999-12-04T17:00:00Z,28.8425,-94.2433,2.0,283.5833527,18.39447743,-99999.0,'11111222,11111222,99999999' 
TABS,ioos:station:wmo:42050:1,1999-12-04T17:30:00Z,28.8425,-94.2433,2.0,296.3270106,16.12218968,-99999.0,'11111222,11111222,99999999' 
TABS,ioos:station:wmo:42050:1,1999-12-04T18:00:00Z,28.8425,-94.2433,2.0,292.0424471,19.45175828,-99999.0,'11111222,11111222,99999999' 
TABS,ioos:station:wmo:42050:1,1999-12-04T18:30:00Z,28.8425,-94.2433,2.0,287.1890472,17.1562525,-99999.0,'11111222,11111222,99999999' 
TABS,ioos:station:wmo:42050:1,1999-12-04T19:00:00Z,28.8425,-94.2433,2.0,288.586161,16.81705087,-99999.0,'11111222,11111222,99999999' 
TABS,ioos:station:wmo:42050:1,1999-12-04T19:30:00Z,28.8425,-94.2433,2.0,279.7850257,17.53507342,-99999.0,'11111222,11111222,99999999' 
TABS,ioos:station:wmo:42050:1,1999-12-04T20:00:00Z,28.8425,-94.2433,2.0,278.5947397,20.94519038,-99999.0,'11111222,11111222,99999999' 
TABS,ioos:station:wmo:42050:1,1999-12-04T20:30:00Z,28.8425,-94.2433,2.0,270.9697979,17.73253789,-99999.0,'11111222,11111222,99999999' 
TABS,ioos:station:wmo:42050:1,1999-12-04T21:00:00Z,28.8425,-94.2433,2.0,270.0004209,16.99,-99999.0,'11111222,11111222,99999999' 
TABS,ioos:station:wmo:42050:1,1999-12-04T21:30:00Z,28.8425,-94.2433,2.0,251.8996054,16.76984496,-99999.0,'11111222,11111222,99999999' 
TABS,ioos:station:wmo:42050:1,1999-12-04T22:00:00Z,28.8425,-94.2433,2.0,261.7373994,16.56189905,-99999.0,'11111222,11111222,99999999' 
TABS,ioos:station:wmo:42050:1,1999-12-04T22:30:00Z,28.8425,-94.2433,2.0,257.7776411,14.78510737,-99999.0,'11111222,11111222,99999999' 
TABS,ioos:station:wmo:42050:1,1999-12-04T23:00:00Z,28.8425,-94.2433,2.0,252.2127144,17.05525432,-99999.0,'11111222,11111222,99999999' 
TABS,ioos:station:wmo:42050:1,1999-12-04T23:30:00Z,28.8425,-94.2433,2.0,246.8728048,17.82223611,-99999.0,'11111222,11111222,99999999' 